STARLINK-31722 (59549 NORAD) Tracking and Keplerian Element Data

This shows tracking and keplerian element data for the satellite.

Feedback or suggestion? Click here.




ElementValue
Catalog59549
NameSTARLINK-31722
Epoch Orbit892
Epoch Day159.93673968
Epoch Year2024
RAAN28.4256
Inclination43.0013
Eccentricity0.0001187
Argument of Perigee295.5745
Mean Anonmoly64.4989
Mean Motion15.40700351
Decay Rate3.08E-05
L11 59549U 24074R 24159.93673968 .00003080 00000+0 80966-4 0 9994
L22 59549 43.0013 28.4256 0001187 295.5745 64.4989 15.40700351 8921



Live tracking and technical data element details for STARLINK-31722 (NORAD 59549). STARLINK-31722 can be tracked NOW for your location showing map with azimuth and elevation plus other details from your city location.







IsCatalogInMostPopularTable: catalog: 59549, numindb: 12
Update: records affected: 1



GetName: 59549 STARLINK-31722

Hit Count: updated at: Fri, 14 Jun 2024 17:38:44 GMT